Regional Weather Roundup
Issued by NWS Wakefield, VA

Home | Current Version | Previous Version | Text Only | Print | Product List | Glossary Off
Versions: 1 2 3 4 5 6 7 8 9 10 11 12 13 14 15 16 17 18 19 20 21 22 23 24 25 26 27 28 29 30 31 32 33 34 35 36 37 38 39 40 41 42 43 44 45 46 47 48 49 50

000
ASUS41 KAKQ 021415
RWRAKQ

REGIONAL WEATHER ROUNDUP
NATIONAL WEATHER SERVICE WAKEFIELD VA
1000 AM EDT SUN AUG 02 2015

Note: "fair" indicates few or no clouds below 12,000 feet with no
significant weather and/or obstructions to visibility. * = Denotes
station may not report precipitation (e.g., rain,snow,etc.),
thunder or fog.

VAZ042-051-052>054-056-021500-
NORTHERN VIRGINIA

CITY           SKY/WX    TMP DP  RH WIND       PRES   REMARKS
WASH NATIONAL  PTSUNNY   81  61  50 VRB6      29.97R
DULLES         PTSUNNY   77  61  57 W5        29.98R
FORT BELVOIR   PTSUNNY   79  62  57 W5        29.97R
QUANTICO       NOT AVBL
FREDERICKSBRG* CLOUDY    80  64  57 N5        29.96S
STAFFORD*      PTSUNNY   78  60  52 N7        30.01S
WARRENTON      PTSUNNY   78  68  72 CALM      29.98S
CULPEPER*      CLOUDY    75  62  62 CALM      29.99S
MANASSAS*      SUNNY     75  64  69 CALM      29.98R
LEESBURG*      PTSUNNY   79  64  61 W9        29.99S
WINCHESTER     MOSUNNY   77  59  53 SW5       30.00R
FRONT ROYAL*   FAIR      70  59  68 S6        30.00S
LURAY*         FAIR      73  61  64 SW3       30.02S
$$

VAZ048-049-060>072-079>083-021500-
CENTRAL AND SOUTH CENTRAL VIRGINIA

CITY           SKY/WX    TMP DP  RH WIND       PRES   REMARKS
RICHMOND       PTSUNNY   83  60  45 N8        29.96S
CHESTERFIELD*  FAIR      82  57  42 N7        29.98R
PETERSBURG*    PTSUNNY   78  69  74 N3        29.97S
HANOVER        PTSUNNY   80  63  55 VRB6      29.98S
TAPPAHANNOCK*  PTSUNNY   80  62  53 CALM      29.97S
QUINTON*       FAIR      78  64  62 N6        29.96R
CHARLOTTSVILLE MOSUNNY   77  63  61 CALM      30.00R
GORDONSVILLE*  FAIR      77  63  61 W3        29.99S
ORANGE*        PTSUNNY   79  63  57 CALM      30.00F
LOUISA*        PTSUNNY   79  61  53 NW5       29.98S
BUMPASS*       FAIR      76  66  70 CALM      29.98S
FARMVILLE*     MOSUNNY   81  60  48 NE5       29.98S
CREWE*         FAIR     N/A N/A N/A NW6       29.98S
FORT PICKETT*  FAIR      78  61  56 N7        29.98F
CHASE CITY*    FAIR      78  65  64 CALM      29.99S
CLARKSVILLE*   FAIR      75  63  64 CALM      29.99S
SOUTH HILL*    PTSUNNY   78  61  54 N8        30.04S
LAWRENCEVILLE* FAIR      79  63  57 N6        29.97S
EMPORIA*       PTSUNNY   73  64  73 NW6       29.97S
$$

VAZ088>098-021500-
SOUTHEAST VIRGINIA

CITY           SKY/WX    TMP DP  RH WIND       PRES   REMARKS
NORFOLK        SUNNY     84  73  69 NE8       29.92R
VIRGINIA BEACH PTSUNNY   88  71  57 NE5       29.91S
NORFOLK NAVAL  PTSUNNY   84  72  67 N10       29.94R
WEST POINT*    MOSUNNY   82  66  59 NW5       29.96S
SALUDA*        FAIR      80  70  72 N6        29.94R
NEWPORT NEWS   MOSUNNY   83  70  64 NE8       29.94R
LANGLEY AFB    MOSUNNY   73  70  88 NW5       29.87S
FORT EUSTIS    MOSUNNY   82  65  57 N7        29.92R
WILLIAMSBURG*  PTSUNNY   82  72  69 CALM      29.96R
HR EXEC AP*    FAIR      84  72  65 N6        29.95R
FRANKLIN*      MOSUNNY   80  67  63 N6        29.95S
WAKEFIELD      PTSUNNY   78  65  63 N3        29.95R
$$

VAZ020-022-025-037-045-021500-
WEST CENTRAL AND SOUTHWEST VIRGINIA

CITY           SKY/WX    TMP DP  RH WIND       PRES   REMARKS
STAUNTON*      PTSUNNY   71  59  66 CALM      30.05F
WAYNESBORO*    FAIR      71  58  64 CALM      30.04S
HOT SPRINGS VA MOSUNNY   67  54  63 CALM      30.13S
LYNCHBURG      SUNNY     77  58  51 VRB5      30.03R
DANVILLE       MOSUNNY   81  62  52 N6        30.00S
SOUTH BOSTON*  FAIR      77  62  60 CALM      30.00S
MARTINSVILLE   MOSUNNY   78  59  52 N6        30.05S
ROANOKE        MOSUNNY   75  59  57 VRB3      30.06S
BLACKSBURG     PTSUNNY   69  62  77 CALM      30.12S
DUBLIN*          N/A     70  62  75 CALM      30.11R
MARION*        SUNNY     72  58  60 CALM      30.13S
HILLSVILLE*    MOSUNNY   69  60  73 CALM      30.10S
RICHLANDS*     FAIR      70  60  71 SE3       30.11S
WISE*          MOSUNNY   73  52  46 E5        30.12S
ABINGDON*      SUNNY     75  60  59 E3        30.09S
$$

MDZ021>025-VAZ099-100-021500-
SOUTHERN MARYLAND AND THE DELMARVA PENINSULA

CITY           SKY/WX    TMP DP  RH WIND       PRES   REMARKS
PATUXENT RIVER PTSUNNY   81  62  52 NW9       29.95R
BAY BRIDGE APT   N/A     77  61  57 N3        29.96R
LEONARDTOWN    PTSUNNY   79  61  53 CALM      29.97S
DOVER          MOSUNNY   80  68  67 N6        29.93R
GEORGETOWN     PTSUNNY   80  67  64 N5        29.95R
EASTON         MOSUNNY   82  64  54 N6        29.99R
CAMBRIDGE      PTSUNNY   79  59  50 N6        29.95R
SALISBURY      PTSUNNY   79  64  60 NE6       29.94R
OCEAN CITY     MOSUNNY   83  69  62 MISG      29.93R
WALLOPS ISLAND PTSUNNY   82  67  60 NE8       29.94R
ACCOMACK*      MOSUNNY   81  59  47 NE5       29.94R
$$

NCZ012>017-030>032-021500-
NORTH CENTRAL AND EASTERN NORTH CAROLINA

CITY           SKY/WX    TMP DP  RH WIND       PRES   REMARKS
ROANOKE RAPIDS FAIR      79  61  53 N9        29.96S
RALEIGH        PTSUNNY   79  60  52 N6        29.99R
ELIZABETH CITY MOSUNNY   84  71  65 N5        29.93R
AHOSKIE*       PTSUNNY   78  65  64 N3        29.95R
EDENTON*         N/A     81  68  64 CALM      29.93S
CURRITUCK*     MOSUNNY   82  72  72 CALM      29.93S
KILL DEVIL HLS MOSUNNY   90  71  54 CALM      29.92R HX  96
MANTEO         MOSUNNY   83  70  64 N3        29.93S
CAPE HATTERAS  SUNNY     84  73  69 CALM      29.94S
TARBORO*         N/A     82  66  58 N5        29.96S
GOLDSBORO      SUNNY     82  67  59 VRB1      29.94R
WASHINGTON     SUNNY     80  70  71 CALM      29.94S
GREENVILLE     SUNNY     81  68  65 CALM      29.96S
NEW BERN       SUNNY     84  72  67 N3        29.95R
WILMINGTON     SUNNY     84  74  71 CALM      29.94S
$$

VAZ048-021500-
ELSEWHERE

CITY           SKY/WX    TMP DP  RH WIND       PRES   REMARKS
HARRISBURG PA  MOSUNNY   77  61  57 W6        29.95R
BALTIMORE      PTSUNNY   80  62  54 CALM      29.95S
ANNAPOLIS      PTSUNNY   78  63  59 NW6       29.95R
ANDREWS AFB    PTSUNNY   79  59  50 NW6       29.96R
PHILADELPHIA   MOSUNNY   83  59  44 CALM      29.94S
HENDERSON NC   MOSUNNY   77  58  51 N5        29.99S
GREENSBORO     PTSUNNY   79  57  46 N6        30.01S
ROCKY MOUNT    SUNNY     84  61  45 N8        29.96R
$$

VAZ100-021500-
MARINE

STATION/POSITION TIME  TEMP    WIND        PRES    WAVE   SWELL
                       AIR SEA DIR/SP/G            HT/PER HT/PER
                 (UTC) (F)     (DEG/KT/KT) (MB)    (FT/S) (FT/S)
BRANDYWINE LGT   1300   77 76   10/  9/ 10 1013.7R
CAPE MAY NJ      1300   79 74  350/  5/  8 1013.0R
LEWES DE         1300   76 73  340/  3/  5 1013.4R
15NM E FENWICK I 1350   78 79  360/  8/ 10 1013.6R   3/ 7   2/ 7
OCEAN-CITY-INLET 1300   78 72   20/  4/  6 1012.6R
WACHAPREAGUE VA  1300   79 82   50/  7/  9 1013.3R
GOOSES REEF MD   1400   79 82  360/  8/ 10 1015.3R
COVE POINT MD    1300   77     350/ 11/ 13 1014.6R
SOLOMONS ISLAND  1300      83                N/A
BISHOPS HEAD MD  1300   79 82   10/  7/ 12 1012.8R
PINEY POINT MD   1300           10/  8/  9   N/A
POTOMAC MD       1400   80 82   30/ 10/ 12 1013.0R   1
CAMBRIDGE MD     1300   78 85  350/  7/  9 1013.1R
LEWISETTA VA     1300   79 83  350/  5/  7 1013.5R
RAPPAHANNOCK LGT 1300           30/  9/ 10 1013.8R
STINGRAY PT      1400   82 83   40/ 12/ 16 1013.9R   2/ 3
YORK RVR RNG VA  1300   80      10/  8/ 10 1012.7R
YORKTOWN VA      1300   78 83  330/  7/  8 1013.1R
JAMESTOWN VA     1400   79 85  320/  6/ 10   N/A
DOMINION TERM VA 1300   82      50/  2/  5 1013.0R
KIPTOPEKE VA     1300      81   60/  8/ 10   N/A
CHES BAY BRIDGE  1300   80 79   20/  8/ 10 1012.6R
CAPE HENRY VA    1300   80      10/  6/  6   N/A
CHESAPEAKE LGHT  1300   80     340/  4/  5 1013.7R
WILLOUBY STN VA  1300   81      20/  9/ 11 1014.1R
CAPE HENRY BUOY  1328      80                N/A     2/11   2/11
1ST LANDING BUOY 1400      81              1012.9R   1/ 4
CAPE CHARLES BUO 1326      75                N/A     2/11   2/11
OFFSHORE WE BUOY 1311      82                N/A     3/10   3/10
64NM E OF VA BCH 1350   81 82  280/  2/  4 1012.8R   3/ 8   3/ 8
DUCK PIER NC     1300   80 76  300/  5/  8 1012.4R
44100 DUCK FRF   1324      81                N/A     2/ 7
44056 DUCK FRF   1311      79                N/A     2/12   2/12
OREGON INLET NC  1300   81 81  290/  5/  6 1013.2R
HATTERAS NC      1300   81 81  300/  3/  4 1013.5R
DIAMOND SHLS NC  1350   81 85  310/  6/  8 1013.7F   3/ 7   3/ 7



USA.gov is the U.S. government's official web portal to all federal, state and local government web resources and services.